Seattle, WA
on Sunday, November 4, 2012

Sunday
Previous Day Next Day
Daily Summary
 ActualAverageRecord
Temperature
Mean Temperature °F 48°F  
Max Temperature 64°F 54°F 74°F (1949)
Min Temperature 55°F 42°F 30°F (1957)
Degree Days
Heating Degree Days 5 17  
Month to date heating degree days 34 67  
Since 1 July heating degree days 527 664  
Cooling Degree Days 0 0  
Month to date cooling degree days 0 0  
Year to date cooling degree days 177 189  
Growing Degree Days10 (Base °F )  
Moisture
Dew Point 55°F   
Average Humidity 86    
Maximum Humidity 93    
Minimum Humidity 78    
Precipitation
Precipitation 0.32 in 0.20 in 1.91 in (2006)
Month to date precipitation 0.94 0.78  
Year to date precipitation 34.07 26.35  
Snow
Snow 0.00 in in T in (1973)
Month to date snowfall 0.0  
Since 1 July snowfall 0.0  
Snow Depth 0.00 in   
Wind
Wind Speed 9 mph   
Max Wind Speed 17 mph   
Max Gust Speed 22 mph   
Visibility 6 miles   
Events Rain   

Key: T is trace of precipitation, MM is missing value
Source: NWS Daily Summary
Time(PST)TemperatureDew PointHumidity Pressure Visibility Wind DirectionWind SpeedGust SpeedPrecipitationEvents Conditions
12:53 AM 55.0°F 52.0°F 89% 30.21 in 10.0 miles SE 3.5 mph - N/A   Overcast
1:53 AM 55.9°F 53.1°F 90% 30.20 in 5.0 miles SSE 5.8 mph - 0.00 in Rain Light Rain
1:08 AM 55.4°F 53.6°F 94% 30.20 in 2.0 miles SSE 3.5 mph - 0.00 in Rain Light Rain
1:38 AM 55.4°F 53.6°F 94% 30.20 in 5.0 miles ESE 3.5 mph - 0.03 in Rain Light Rain
1:53 AM 55.0°F 53.1°F 93% 30.22 in 6.0 miles ESE 5.8 mph - 0.03 in Rain Light Rain
2:53 AM 55.0°F 53.1°F 93% 30.21 in 7.0 miles East 6.9 mph - 0.01 in   Overcast
3:35 AM 55.4°F 51.8°F 88% 30.19 in 2.0 miles SE 9.2 mph - 0.00 in Rain Light Rain
3:53 AM 55.0°F 52.0°F 89% 30.21 in 2.0 miles ESE 9.2 mph - 0.01 in Rain Light Rain
4:33 AM 55.4°F 53.6°F 94% 30.20 in 1.0 miles ESE 11.5 mph - 0.00 in   Light Drizzle
4:53 AM 55.0°F 53.1°F 93% 30.23 in 1.0 miles ESE 8.1 mph - 0.02 in Rain Light Rain
5:53 AM 55.0°F 53.1°F 93% 30.23 in 3.0 miles SE 9.2 mph - 0.01 in Rain Light Rain
6:05 AM 55.4°F 53.6°F 94% 30.21 in 1.0 miles ESE 15.0 mph - 0.00 in   Overcast
6:32 AM 55.4°F 53.6°F 94% 30.20 in 5.0 miles ESE 9.2 mph - 0.00 in   Overcast
6:53 AM 55.9°F 53.1°F 90% 30.22 in 10.0 miles SE 9.2 mph - 0.00 in   Overcast
7:53 AM 57.0°F 53.1°F 87% 30.23 in 10.0 miles ESE 5.8 mph - N/A   Overcast
8:53 AM 57.0°F 53.1°F 87% 30.25 in 10.0 miles SSE 5.8 mph - N/A   Overcast
9:53 AM 57.9°F 54.0°F 87% 30.25 in 10.0 miles SE 8.1 mph - 0.00 in   Overcast
10:53 AM 60.1°F 55.0°F 83% 30.26 in 10.0 miles SSW 5.8 mph - N/A   Overcast
11:53 AM 61.0°F 55.9°F 83% 30.26 in 10.0 miles South 6.9 mph - N/A   Overcast
12:53 PM 62.1°F 57.0°F 84% 30.27 in 10.0 miles SSW 5.8 mph - 0.00 in Rain Light Rain
1:53 PM 62.1°F 55.9°F 80% 30.27 in 10.0 miles SSW 9.2 mph - 0.00 in   Overcast
2:53 PM 61.0°F 57.0°F 87% 30.26 in 10.0 miles SSW 10.4 mph - N/A   Overcast
3:25 PM 62.6°F 57.2°F 82% 30.23 in 10.0 miles SSW 13.8 mph - N/A   Mostly Cloudy
3:53 PM 63.0°F 55.9°F 78% 30.24 in 10.0 miles South 11.5 mph 20.7 mph N/A   Mostly Cloudy
4:53 PM 64.0°F 55.0°F 73% 30.25 in 10.0 miles SSW 13.8 mph - 0.00 in Rain Light Rain
5:53 PM 62.1°F 55.9°F 80% 30.27 in 10.0 miles SW 10.4 mph - 0.02 in   Overcast
6:53 PM 61.0°F 55.9°F 83% 30.27 in 10.0 miles South 6.9 mph - 0.00 in   Overcast
7:53 PM 61.0°F 55.9°F 83% 30.27 in 10.0 miles WNW 9.2 mph - 0.00 in Rain Light Rain
8:36 PM 60.8°F 57.2°F 88% 30.25 in 2.5 miles WSW 9.2 mph - 0.05 in Rain Light Rain
8:51 PM 60.8°F 57.2°F 88% 30.25 in 2.5 miles SW 11.5 mph - 0.06 in Rain Light Rain
8:53 PM 60.1°F 57.9°F 93% 30.27 in 2.5 miles SW 11.5 mph - 0.06 in Rain Light Rain
9:53 PM 60.1°F 57.0°F 90% 30.28 in 2.5 miles SW 10.4 mph 18.4 mph 0.02 in Rain Rain
10:04 PM 60.8°F 57.2°F 88% 30.26 in 1.5 miles SW 9.2 mph - 0.03 in Rain Rain
10:53 PM 60.1°F 57.9°F 93% 30.29 in 1.5 miles SW 10.4 mph - 0.08 in Rain Light Rain
Moon Phase
Nov. 04 Nov. 06 Nov. 13 Nov. 20 Nov. 28
Sunrise:06:58 AM (PST) Moon Rise:09:26 PM (PST)11/4
Sunset:04:46 PM (PST) Moon Set:11:49 AM (PST)11/4

Copyright © 2014 The Weather Underground, Inc.